Location: Newark
(45.8667°N, 9.7333°E)
Time: 11:14:24
(UTC+00:00)

ITAMSAT 1 - Pass Details

Date: 23 February 2020
Orbit: 784 x 796 km, 98.9° (Epoch: 05 April)

Event Time Altitude Azimuth Distance (km) Brightness Sun altitude
Rises 04:10:55 0° 25° (NNE) 3,308 11.3 -21.7°
Reaches altitude 10° 04:13:39 10° 38° (NE) 2,374 10.7 -21.2°
Maximum altitude 04:17:57 26° 94° (E) 1,546 9.9 -20.5°
Drops below altitude 10° 04:22:15 10° 149° (SSE) 2,362 10.4 -19.7°
Sets 04:24:57 0° 163° (SSE) 3,286 11.0 -19.3°
